MIDAS 4 DEB, 195

Orbit data source: Space-Track

MIDAS 4 DEB, 195 is space debris in LEO originally from a launch on Sat, 21 Oct 1961 UTC launched from the Air Force Western Test Range (AFWTR). Debris objects in space refer to the collection of defunct objects orbiting the Earth. Examples of debris include non-operational satellites, rocket bodies, and fragments generated from explosions, collisions, or faulty payload assembly.

Loading next visibility...
Identifier
195, 1961-028D
Orbit
LEO
Country
Flag of USUS
Related business
Manufacturer
Unknown
Mission
Spacecraft
Bus & Motor
Unknown
Mass
~10 kg wet, ~10 kg dry
Launch date (UTC)
1961-10-21 (64 years ago)
Launch vehicle
Unknown
Launch site
Air Force Western Test Range (AFWTR)
Object type
Payload
Rocket body
Debris
Shape & HBR
Unknown shape, 1.1 m
Radar Cross Section
Medium (>0.1 m² and <1 m²)

Expand to show TLE details & history
Last TLE update: 13 hours ago

TLE from 13 hours ago
0 MIDAS 4 DEB
1   195U 61028D   25342.92649205 -.00000027  00000-0 -10976-1 0  9990
2   195  95.8310 164.5287 0126668 259.8870  98.7671  8.65622250 26567
Epoch: 2025-12-08T22:14Z
TLE epoch observation values (Epoch: 2025-12-08T22:14:08.913Z)
Latitude
0.00002°
Longitude
113.07304°
Altitude
3,664.508 km
Speed
6.294 km/s
True Right ascension
10h 58m 06s
True Declination
0° 00' 00"
Sunlit
Object was in daylight at epoch
Visualization orbit readout
Latitude
Unknown
Longitude
Unknown
Altitude
Unknown
Speed
Unknown
Apparent Right ascension
Unknown
Apparent Declination
Unknown
Sunlit
N/A
Visualization observer readout
Local Sidereal Time
09:47:47
Azimuth
Unknown
Elevation
Unknown
Doppler factor
Unknown
Orbital elements
Apogee altitude
3,766.21 km
Perigee altitude
3,512.431 km
Semi-major axis
10,017.457 km
Eccentricity
0.01267
Inclination
95.831°
RAAN
164.5287°
Arg. of periapsis
259.887°
True anomaly
100.19805°
Mean anomaly
98.7671°
Eccentric anomaly
99.48294°
Mean motion
2.16475 °/min
Orbital period
166.3 mins
BSTAR
-0.010976
Loading maneuver chart data...
Computing Atmospheric mass density...
Loading historical data...
Loading historical data...
Loading historical data...
Loading historical data...
Loading historical data...
Loading historical data...
Loading historical data...

Documentation

Showing up to 5 results
|